Voltar ao catálogo

STARLINK-37424

AtivoComunicaçõesVLEO
NORAD 69192·PAYLOAD·🇺🇸 United States

Lançado May 25, 2026 de Cape Canaveral Space Force Station

Loading…

Próximas Passagens (próximas 24 horas)

TLE

AtualizadoSource: CelesTrak SupGP

Época: Sep 15, 2026, 03:32 UTC

1 69192C 26114L   26258.14770833  .00038684  00000+0  11431-2 0  2585
2 69192  53.1565 138.8496 0001244  78.1360 257.3240 15.34367274    15

Acompanhe STARLINK-37424 em tempo real com AllMySat

Download on the App Store